,,,PA_Meas_PMT16A,,PR_Meas_QMR101_102,,RH_Meas_QMH101,,SR_Meas_QMS101,,TA_Meas_QMH101,,GenWind,,GenWind,
date,time,status,PA,status,PR,status,RH,status,SR,status,TA,status,DirAvg,status,SpdAvg,
2009-11-26, 00:00:04,VALID,1000.24,VALID,0,VALID,81.9116,VALID,0,VALID,26.2173,VALID,270,VALID,1.6125,
2009-11-26, 00:01:04,VALID,1000.24,VALID,0,VALID,81.7895,VALID,0,VALID,26.2759,VALID,296,VALID,1.94453,
2009-11-26, 00:02:04,VALID,1000.2,VALID,0,VALID,81.5606,VALID,0,VALID,26.2954,VALID,270,VALID,2.06719,
2009-11-26, 00:03:04,VALID,1000.2,VALID,0,VALID,81.6522,VALID,0,VALID,26.2954,VALID,296,VALID,1.36523,
2009-11-26, 00:04:04,VALID,1000.23,VALID,0,VALID,81.6598,VALID,0,VALID,26.315,VALID,267,VALID,1.69102,
2009-11-26, 00:05:04,VALID,1000.19,VALID,0,VALID,81.7285,VALID,0,VALID,26.2954,VALID,274,VALID,0.729297,
2009-11-26, 00:06:04,VALID,1000.23,VALID,0,VALID,82.0718,VALID,0,VALID,26.2954,VALID,279,VALID,0.441016,
2009-11-26, 00:07:04,VALID,1000.22,VALID,0,VALID,81.9803,VALID,0,VALID,26.2759,VALID,241,VALID,0.589453,
2009-11-26, 00:08:04,VALID,1000.22,VALID,0,VALID,81.9955,VALID,0,VALID,26.2564,VALID,279,VALID,0.513672,
2009-11-26, 00:09:04,VALID,1000.21,VALID,0,VALID,81.8277,VALID,0,VALID,26.2369,VALID,290,VALID,1.66133,
2009-11-26, 00:10:04,VALID,1000.23,VALID,0,VALID,82.1786,VALID,0,VALID,26.2153,VALID,301,VALID,0.814844,
2009-11-26, 00:11:04,VALID,1000.23,VALID,0,VALID,82.0032,VALID,0,VALID,26.2564,VALID,275,VALID,0.854688,
2009-11-26, 00:12:04,VALID,1000.21,VALID,0,VALID,82.3389,VALID,0,VALID,26.2369,VALID,318,VALID,0.739844,
2009-11-26, 00:13:04,VALID,1000.13,VALID,0,VALID,82.3923,VALID,0,VALID,26.2173,VALID,313,VALID,1.27148,
2009-11-26, 00:14:04,VALID,1000.14,VALID,0,VALID,82.2778,VALID,0,VALID,26.1978,VALID,314,VALID,0.810156,
2009-11-26, 00:15:04,VALID,1000.1,VALID,0,VALID,82.316,VALID,0,VALID,26.1978,VALID,276,VALID,0.889063,
2009-11-26, 00:16:04,VALID,1000.11,VALID,0,VALID,82.4152,VALID,0,VALID,26.1978,VALID,269,VALID,1.35508,
2009-11-26, 00:17:04,VALID,1000.09,VALID,0,VALID,82.4075,VALID,0,VALID,26.2193,VALID,259,VALID,1.05508,
2009-11-26, 00:18:04,VALID,1000.08,VALID,0,VALID,82.0489,VALID,0,VALID,26.2369,VALID,268,VALID,2.39961,
2009-11-26, 00:19:04,VALID,1000.02,VALID,0,VALID,82.3617,VALID,0,VALID,26.2564,VALID,244,VALID,0.673437,
2009-11-26, 00:20:04,VALID,1000.04,VALID,0,VALID,82.3389,VALID,0,VALID,26.2369,VALID,235,VALID,1.94883,
2009-11-26, 00:21:04,VALID,999.99,VALID,0,VALID,82.6898,VALID,0,VALID,26.2564,VALID,282,VALID,1.46445,
2009-11-26, 00:22:04,VALID,999.948,VALID,0,VALID,82.2397,VALID,0.112286,VALID,26.2564,VALID,288,VALID,1.27383,
2009-11-26, 00:23:04,VALID,999.899,VALID,0,VALID,82.2244,VALID,0,VALID,26.2779,VALID,298,VALID,0.958594,
2009-11-26, 00:24:04,VALID,999.897,VALID,0,VALID,82.5067,VALID,0,VALID,26.2564,VALID,285,VALID,1.04688,
2009-11-26, 00:25:04,VALID,999.893,VALID,0,VALID,82.377,VALID,0,VALID,26.2584,VALID,284,VALID,1.47187,
2009-11-26, 00:26:04,VALID,999.885,VALID,0,VALID,82.789,VALID,0,VALID,26.2193,VALID,296,VALID,1.77227,
2009-11-26, 00:27:04,VALID,999.816,VALID,0,VALID,82.6822,VALID,0,VALID,26.2193,VALID,258,VALID,1.71211,
2009-11-26, 00:28:04,VALID,999.79,VALID,0,VALID,82.6593,VALID,0,VALID,26.2389,VALID,274,VALID,0.901953,
2009-11-26, 00:29:04,VALID,999.791,VALID,0,VALID,82.7966,VALID,0,VALID,26.2389,VALID,261,VALID,0.792188,
2009-11-26, 00:30:04,VALID,999.771,VALID,0,VALID,82.7127,VALID,0,VALID,26.2584,VALID,241,VALID,1.23047,
2009-11-26, 00:31:04,VALID,999.731,VALID,0,VALID,82.8348,VALID,0,VALID,26.2389,VALID,335,VALID,0.642969,
2009-11-26, 00:32:04,VALID,999.725,VALID,0,VALID,82.8806,VALID,0,VALID,26.2409,VALID,282,VALID,1.22031,
2009-11-26, 00:33:04,VALID,999.704,VALID,0,VALID,83.056,VALID,0,VALID,26.1998,VALID,291,VALID,0.542578,
2009-11-26, 00:34:04,VALID,999.714,VALID,0,VALID,83.1934,VALID,0,VALID,26.2193,VALID,240,VALID,1.09258,
2009-11-26, 00:35:04,VALID,999.701,VALID,0,VALID,83.1781,VALID,0,VALID,26.2193,VALID,267,VALID,1.6793,
2009-11-26, 00:36:04,VALID,999.668,VALID,0,VALID,83.1476,VALID,0,VALID,26.2409,VALID,276,VALID,0.626953,
2009-11-26, 00:37:04,VALID,999.663,VALID,0,VALID,83.3536,VALID,0,VALID,26.1998,VALID,291,VALID,0.489844,
2009-11-26, 00:38:04,VALID,999.668,VALID,0,VALID,83.6512,VALID,0,VALID,26.1998,VALID,308,VALID,0.609766,
2009-11-26, 00:39:04,VALID,999.735,VALID,0,VALID,83.8343,VALID,0,VALID,26.1607,VALID,257,VALID,1.44805,
2009-11-26, 00:40:04,VALID,999.682,VALID,0,VALID,83.468,VALID,0,VALID,26.1803,VALID,285,VALID,2.42227,
2009-11-26, 00:41:04,VALID,999.694,VALID,0,VALID,83.6664,VALID,0,VALID,26.1803,VALID,286,VALID,1.93594,
2009-11-26, 00:42:04,VALID,999.69,VALID,0,VALID,83.5596,VALID,0,VALID,26.1803,VALID,302,VALID,1.50547,
2009-11-26, 00:43:04,VALID,999.69,VALID,0,VALID,83.5596,VALID,0,VALID,26.1803,VALID,309,VALID,1.65586,
2009-11-26, 00:44:04,VALID,999.694,VALID,0,VALID,83.6588,VALID,0,VALID,26.1803,VALID,272,VALID,1.43789,
2009-11-26, 00:45:04,VALID,999.652,VALID,0,VALID,83.6435,VALID,0,VALID,26.1998,VALID,317,VALID,1.06797,
2009-11-26, 00:46:04,VALID,999.643,VALID,0,VALID,83.8343,VALID,0,VALID,26.1783,VALID,335,VALID,1.30977,
2009-11-26, 00:47:04,VALID,999.626,VALID,0,VALID,84.0403,VALID,0,VALID,26.1588,VALID,295,VALID,0.459766,
2009-11-26, 00:48:04,VALID,999.623,VALID,0,VALID,83.7351,VALID,0,VALID,26.1392,VALID,309,VALID,2.18828,
2009-11-26, 00:49:04,VALID,999.62,VALID,0,VALID,83.9945,VALID,0,VALID,26.1803,VALID,308,VALID,1.03711,
2009-11-26, 00:50:04,VALID,999.598,VALID,0,VALID,83.8495,VALID,0,VALID,26.1392,VALID,251,VALID,0.908203,
2009-11-26, 00:51:04,VALID,999.601,VALID,0,VALID,83.758,VALID,0,VALID,26.1588,VALID,279,VALID,1.76602,
2009-11-26, 00:52:04,VALID,999.581,VALID,0,VALID,83.7351,VALID,0,VALID,26.1783,VALID,297,VALID,0.657031,
2009-11-26, 00:53:04,VALID,999.592,VALID,0,VALID,83.8419,VALID,0,VALID,26.1588,VALID,296,VALID,0.910156,
2009-11-26, 00:54:04,VALID,999.549,VALID,0,VALID,83.9029,VALID,0,VALID,26.1588,VALID,267,VALID,0.358203,
2009-11-26, 00:55:04,VALID,999.52,VALID,0,VALID,83.9106,VALID,0,VALID,26.1392,VALID,250,VALID,0.432813,
2009-11-26, 00:56:04,VALID,999.474,VALID,0,VALID,83.9716,VALID,0,VALID,26.1588,VALID,268,VALID,0.640234,
2009-11-26, 00:57:04,VALID,999.463,VALID,0,VALID,83.9182,VALID,0,VALID,26.1588,VALID,200,VALID,1.13633,
2009-11-26, 00:58:04,VALID,999.473,VALID,0,VALID,84.1852,VALID,0,VALID,26.1783,VALID,275,VALID,0.978906,
2009-11-26, 00:59:04,VALID,999.466,VALID,0,VALID,84.1623,VALID,0,VALID,26.1783,VALID,244,VALID,1.45938,
2009-11-26, 01:00:04,VALID,999.464,VALID,0,VALID,83.9334,VALID,0,VALID,26.2193,VALID,282,VALID,1.64492,
2009-11-26, 01:01:04,VALID,999.445,VALID,0,VALID,84.086,VALID,0,VALID,26.2173,VALID,257,VALID,1.04219,
2009-11-26, 01:02:04,VALID,999.448,VALID,0,VALID,83.9945,VALID,0,VALID,26.2369,VALID,245,VALID,1.19414,
2009-11-26, 01:03:04,VALID,999.44,VALID,0,VALID,83.9487,VALID,0,VALID,26.2173,VALID,259,VALID,0.970703,
2009-11-26, 01:04:04,VALID,999.458,VALID,0,VALID,83.5672,VALID,0,VALID,26.2779,VALID,270,VALID,3.075,
2009-11-26, 01:05:04,VALID,999.446,VALID,0,VALID,83.6588,VALID,0.112286,VALID,26.2954,VALID,279,VALID,0.926172,
2009-11-26, 01:06:04,VALID,999.389,VALID,0,VALID,83.5062,VALID,0,VALID,26.2759,VALID,273,VALID,1.89414,
2009-11-26, 01:07:04,VALID,999.388,VALID,0,VALID,83.9563,VALID,0,VALID,26.2954,VALID,253,VALID,1.43164,
2009-11-26, 01:08:04,VALID,999.393,VALID,0,VALID,83.819,VALID,0,VALID,26.2954,VALID,309,VALID,0.722266,
2009-11-26, 01:09:04,VALID,999.374,VALID,0,VALID,84.0784,VALID,0,VALID,26.2564,VALID,289,VALID,1.2582,
2009-11-26, 01:10:04,VALID,999.341,VALID,0,VALID,84.2157,VALID,0,VALID,26.2369,VALID,239,VALID,0.644531,
2009-11-26, 01:11:05,VALID,999.34,VALID,0,VALID,84.1471,VALID,0.112286,VALID,26.2369,VALID,292,VALID,0.380859,
2009-11-26, 01:12:04,VALID,999.309,VALID,0,VALID,84.2234,VALID,0,VALID,26.2173,VALID,242,VALID,0.974219,
2009-11-26, 01:13:05,VALID,999.268,VALID,0,VALID,84.2386,VALID,0,VALID,26.1978,VALID,228,VALID,0.314453,
2009-11-26, 01:14:05,VALID,999.263,VALID,0,VALID,84.1623,VALID,0,VALID,26.1978,VALID,271,VALID,1.03945,
2009-11-26, 01:15:05,VALID,999.228,VALID,0,VALID,84.1089,VALID,0.112286,VALID,26.2193,VALID,245,VALID,1.20313,
2009-11-26, 01:16:05,VALID,999.219,VALID,0,VALID,84.1318,VALID,0,VALID,26.2173,VALID,283,VALID,1.40547,
2009-11-26, 01:17:05,VALID,999.206,VALID,0,VALID,84.1395,VALID,0,VALID,26.2173,VALID,287,VALID,0.616016,
2009-11-26, 01:18:05,VALID,999.168,VALID,0,VALID,83.6817,VALID,0,VALID,26.2389,VALID,261,VALID,2.11602,
2009-11-26, 01:19:05,VALID,999.127,VALID,0,VALID,83.6664,VALID,0,VALID,26.2564,VALID,294,VALID,1.38789,
2009-11-26, 01:20:05,VALID,999.104,VALID,0,VALID,83.8343,VALID,0,VALID,26.2779,VALID,284,VALID,1.39453,
2009-11-26, 01:21:05,VALID,999.083,VALID,0,VALID,83.468,VALID,0,VALID,26.2974,VALID,283,VALID,1.53945,
2009-11-26, 01:22:05,VALID,999.059,VALID,0,VALID,83.4223,VALID,0,VALID,26.315,VALID,293,VALID,1.7793,
2009-11-26, 01:23:05,VALID,999.071,VALID,0,VALID,83.3383,VALID,0,VALID,26.315,VALID,305,VALID,1.57266,
2009-11-26, 01:24:05,VALID,999.103,VALID,0,VALID,83.5367,VALID,0.112286,VALID,26.356,VALID,288,VALID,1.62422,
2009-11-26, 01:25:05,VALID,999.042,VALID,0,VALID,83.5672,VALID,0.112286,VALID,26.356,VALID,216,VALID,0.898438,
2009-11-26, 01:26:05,VALID,999.03,VALID,0,VALID,83.4375,VALID,0,VALID,26.3345,VALID,279,VALID,1.8375,
2009-11-26, 01:27:05,VALID,998.981,VALID,0,VALID,83.4986,VALID,0,VALID,26.3345,VALID,323,VALID,0.814062,
2009-11-26, 01:28:05,VALID,998.92,VALID,0,VALID,83.2468,VALID,0,VALID,26.315,VALID,318,VALID,3.41563,
2009-11-26, 01:29:05,VALID,998.945,VALID,0,VALID,83.346,VALID,0,VALID,26.354,VALID,273,VALID,2.40937,
2009-11-26, 01:30:05,VALID,998.925,VALID,0,VALID,83.2926,VALID,0,VALID,26.354,VALID,294,VALID,2.42695,
2009-11-26, 01:31:05,VALID,998.887,VALID,0,VALID,83.2163,VALID,0,VALID,26.3736,VALID,258,VALID,1.70898,
2009-11-26, 01:32:05,VALID,998.872,VALID,0,VALID,83.0637,VALID,0.112286,VALID,26.4146,VALID,249,VALID,1.63047,
2009-11-26, 01:33:05,VALID,998.839,VALID,0,VALID,83.1781,VALID,0,VALID,26.3931,VALID,253,VALID,1.82891,
2009-11-26, 01:34:05,VALID,998.83,VALID,0,VALID,83.2697,VALID,0,VALID,26.3931,VALID,239,VALID,1.21563,
2009-11-26, 01:35:05,VALID,998.794,VALID,0,VALID,83.3841,VALID,0.112286,VALID,26.3756,VALID,270,VALID,1.04531,
2009-11-26, 01:36:05,VALID,998.782,VALID,0,VALID,83.346,VALID,0,VALID,26.3736,VALID,272,VALID,1.475,
2009-11-26, 01:37:05,VALID,998.768,VALID,0,VALID,83.5138,VALID,0,VALID,26.354,VALID,214,VALID,2.0457,
2009-11-26, 01:38:05,VALID,998.782,VALID,0,VALID,83.5367,VALID,0,VALID,26.3345,VALID,268,VALID,2.38984,
2009-11-26, 01:39:05,VALID,998.731,VALID,0,VALID,83.7961,VALID,0,VALID,26.3345,VALID,259,VALID,1.41367,
2009-11-26, 01:40:05,VALID,998.72,VALID,0,VALID,83.8724,VALID,0,VALID,26.315,VALID,266,VALID,1.90703,
2009-11-26, 01:41:05,VALID,998.71,VALID,0,VALID,83.9411,VALID,0,VALID,26.354,VALID,252,VALID,1.65195,
2009-11-26, 01:42:05,VALID,998.684,VALID,0,VALID,83.9563,VALID,0.112286,VALID,26.3345,VALID,255,VALID,1.24258,
2009-11-26, 01:43:05,VALID,998.707,VALID,0,VALID,84.0479,VALID,0,VALID,26.315,VALID,265,VALID,0.788672,
2009-11-26, 01:44:05,VALID,998.709,VALID,0,VALID,84.1852,VALID,0,VALID,26.315,VALID,281,VALID,0.600391,
2009-11-26, 01:45:05,VALID,998.696,VALID,0,VALID,84.1623,VALID,0,VALID,26.2954,VALID,238,VALID,0.569531,
2009-11-26, 01:46:05,VALID,998.706,VALID,0,VALID,84.3683,VALID,0,VALID,26.2759,VALID,274,VALID,1.01641,
2009-11-26, 01:47:05,VALID,998.71,VALID,0,VALID,84.3836,VALID,0,VALID,26.2759,VALID,254,VALID,1.18867,
2009-11-26, 01:48:05,VALID,998.703,VALID,0,VALID,84.3836,VALID,0,VALID,26.2779,VALID,244,VALID,1.80547,
2009-11-26, 01:49:05,VALID,998.726,VALID,0,VALID,84.3989,VALID,0,VALID,26.2564,VALID,270,VALID,1.19727,
2009-11-26, 01:50:05,VALID,998.672,VALID,0,VALID,84.3683,VALID,0,VALID,26.2564,VALID,285,VALID,0.705469,
2009-11-26, 01:51:05,VALID,998.688,VALID,0,VALID,84.3912,VALID,0,VALID,26.2564,VALID,288,VALID,0.920313,
2009-11-26, 01:52:05,VALID,998.662,VALID,0,VALID,84.6125,VALID,0,VALID,26.2369,VALID,241,VALID,0.560156,
2009-11-26, 01:53:05,VALID,998.674,VALID,0,VALID,84.7651,VALID,0,VALID,26.2369,VALID,265,VALID,0.689844,
2009-11-26, 01:54:05,VALID,998.605,VALID,0,VALID,84.5972,VALID,0,VALID,26.2173,VALID,201,VALID,0.748828,
2009-11-26, 01:55:05,VALID,998.605,VALID,0,VALID,84.6735,VALID,0,VALID,26.1978,VALID,245,VALID,1.25625,
2009-11-26, 01:56:05,VALID,998.581,VALID,0,VALID,84.6888,VALID,0,VALID,26.1978,VALID,237,VALID,0.873047,
2009-11-26, 01:57:05,VALID,998.576,VALID,0,VALID,84.849,VALID,0,VALID,26.1978,VALID,313,VALID,0.415625,
2009-11-26, 01:58:05,VALID,998.576,VALID,0,VALID,84.8185,VALID,0.112286,VALID,26.1978,VALID,259,VALID,1.05703,
2009-11-26, 01:59:05,VALID,998.615,VALID,0,VALID,84.9558,VALID,0,VALID,26.1783,VALID,267,VALID,0.882031,
2009-11-26, 02:00:05,VALID,998.579,VALID,0,VALID,84.7574,VALID,0,VALID,26.1588,VALID,265,VALID,1.08672,
2009-11-26, 02:01:05,VALID,998.56,VALID,0,VALID,85.0169,VALID,0,VALID,26.1803,VALID,288,VALID,0.500391,
2009-11-26, 02:02:05,VALID,998.549,VALID,0,VALID,85.055,VALID,0,VALID,26.1588,VALID,236,VALID,0.720312,
2009-11-26, 02:03:05,VALID,998.584,VALID,0,VALID,84.9711,VALID,0,VALID,26.1588,VALID,283,VALID,0.741797,
2009-11-26, 02:04:05,VALID,998.601,VALID,0,VALID,84.994,VALID,0,VALID,26.1392,VALID,225,VALID,0.882422,
2009-11-26, 02:05:05,VALID,998.617,VALID,0,VALID,85.1694,VALID,0,VALID,26.1607,VALID,239,VALID,0.648828,
2009-11-26, 02:06:05,VALID,998.632,VALID,0,VALID,85.1389,VALID,0,VALID,26.1197,VALID,265,VALID,0.485547,
2009-11-26, 02:07:05,VALID,998.618,VALID,0,VALID,84.9634,VALID,0,VALID,26.1392,VALID,285,VALID,2.01953,
2009-11-26, 02:08:05,VALID,998.61,VALID,0,VALID,85.0245,VALID,0,VALID,26.1998,VALID,259,VALID,0.83125,
2009-11-26, 02:09:05,VALID,998.603,VALID,0,VALID,85.055,VALID,0,VALID,26.1588,VALID,279,VALID,0.89375,
2009-11-26, 02:10:05,VALID,998.581,VALID,0,VALID,85.1542,VALID,0,VALID,26.1588,VALID,233,VALID,0.362891,
2009-11-26, 02:11:05,VALID,998.541,VALID,0,VALID,85.1466,VALID,0,VALID,26.1588,VALID,279,VALID,0.683594,
2009-11-26, 02:12:05,VALID,998.565,VALID,0,VALID,85.2457,VALID,0,VALID,26.1392,VALID,273,VALID,0.318359,
2009-11-26, 02:13:05,VALID,998.541,VALID,0,VALID,85.2915,VALID,0,VALID,26.1392,VALID,274,VALID,1.07187,
2009-11-26, 02:14:05,VALID,998.543,VALID,0,VALID,85.5051,VALID,0,VALID,26.1197,VALID,198,VALID,0.582812,
2009-11-26, 02:15:05,VALID,998.47,VALID,0,VALID,85.2686,VALID,0,VALID,26.1002,VALID,201,VALID,1.57344,
2009-11-26, 02:16:05,VALID,998.516,VALID,0,VALID,85.3068,VALID,0.112286,VALID,26.1197,VALID,277,VALID,1.82227,
2009-11-26, 02:17:05,VALID,998.507,VALID,0,VALID,85.1389,VALID,0,VALID,26.1392,VALID,234,VALID,1.12109,
2009-11-26, 02:18:05,VALID,998.483,VALID,0,VALID,84.9177,VALID,0,VALID,26.1783,VALID,270,VALID,0.609375,
2009-11-26, 02:19:05,VALID,998.473,VALID,0,VALID,84.8109,VALID,0,VALID,26.1978,VALID,268,VALID,0.488672,
2009-11-26, 02:20:05,VALID,998.445,VALID,0,VALID,84.849,VALID,0,VALID,26.1978,VALID,246,VALID,0.3625,
2009-11-26, 02:21:05,VALID,998.433,VALID,0,VALID,84.9024,VALID,0,VALID,26.1783,VALID,203,VALID,0.721875,
2009-11-26, 02:22:05,VALID,998.459,VALID,0,VALID,84.7651,VALID,0,VALID,26.1783,VALID,246,VALID,1.43125,
2009-11-26, 02:23:05,VALID,998.477,VALID,0,VALID,84.8643,VALID,0,VALID,26.2173,VALID,239,VALID,0.83125,
2009-11-26, 02:24:05,VALID,998.461,VALID,0,VALID,84.849,VALID,0,VALID,26.2173,VALID,256,VALID,0.508594,
2009-11-26, 02:25:05,VALID,998.468,VALID,0,VALID,84.9558,VALID,0,VALID,26.2193,VALID,235,VALID,0.964844,
2009-11-26, 02:26:05,VALID,998.425,VALID,0,VALID,84.9634,VALID,0,VALID,26.2173,VALID,254,VALID,1.09727,
2009-11-26, 02:27:05,VALID,998.471,VALID,0,VALID,85.0932,VALID,0,VALID,26.1978,VALID,294,VALID,0.596094,
2009-11-26, 02:28:05,VALID,998.482,VALID,0,VALID,85.0321,VALID,0,VALID,26.1998,VALID,268,VALID,0.544922,
2009-11-26, 02:29:05,VALID,998.469,VALID,0,VALID,84.8261,VALID,0,VALID,26.1783,VALID,263,VALID,1.02188,
2009-11-26, 02:30:05,VALID,998.48,VALID,0,VALID,84.8795,VALID,0,VALID,26.2193,VALID,250,VALID,0.926172,
2009-11-26, 02:31:05,VALID,998.47,VALID,0,VALID,84.8872,VALID,0,VALID,26.1978,VALID,254,VALID,0.295312,
2009-11-26, 02:32:05,VALID,998.425,VALID,0,VALID,84.8337,VALID,0,VALID,26.1978,VALID,263,VALID,0.316797,
2009-11-26, 02:33:05,VALID,998.411,VALID,0,VALID,84.6201,VALID,0,VALID,26.1998,VALID,239,VALID,2.10234,
2009-11-26, 02:34:05,VALID,998.411,VALID,0,VALID,84.704,VALID,0,VALID,26.1978,VALID,220,VALID,1.9957,
2009-11-26, 02:35:05,VALID,998.385,VALID,0,VALID,84.6888,VALID,0,VALID,26.1978,VALID,244,VALID,0.908203,
2009-11-26, 02:36:05,VALID,998.387,VALID,0,VALID,84.7498,VALID,0,VALID,26.2193,VALID,247,VALID,0.442969,
2009-11-26, 02:37:05,VALID,998.389,VALID,0,VALID,84.91,VALID,0,VALID,26.1998,VALID,299,VALID,0.460547,
2009-11-26, 02:38:05,VALID,998.402,VALID,0,VALID,84.8337,VALID,0,VALID,26.1803,VALID,268,VALID,0.445313,
2009-11-26, 02:39:05,VALID,998.429,VALID,0,VALID,84.9634,VALID,0,VALID,26.1392,VALID,226,VALID,0.550391,
2009-11-26, 02:40:05,VALID,998.406,VALID,0,VALID,84.91,VALID,0,VALID,26.1392,VALID,250,VALID,0.482422,
2009-11-26, 02:41:05,VALID,998.393,VALID,0,VALID,84.9253,VALID,0,VALID,26.1607,VALID,208,VALID,0.1875,
2009-11-26, 02:42:05,VALID,998.374,VALID,0,VALID,85.1237,VALID,0,VALID,26.1197,VALID,208,VALID,0.0886719,
2009-11-26, 02:43:05,VALID,998.372,VALID,0,VALID,85.2,VALID,0,VALID,26.1002,VALID,208,VALID,0.00507812,
2009-11-26, 02:44:05,VALID,998.374,VALID,0,VALID,85.3907,VALID,0,VALID,26.0807,VALID,208,VALID,0,
2009-11-26, 02:45:05,VALID,998.295,VALID,0,VALID,85.3983,VALID,0,VALID,26.0611,VALID,208,VALID,0.211719,
2009-11-26, 02:46:05,VALID,998.321,VALID,0,VALID,85.3755,VALID,0,VALID,26.0631,VALID,208,VALID,0.021875,
2009-11-26, 02:47:05,VALID,998.33,VALID,0,VALID,85.5586,VALID,0,VALID,26.0221,VALID,208,VALID,0.0535156,
2009-11-26, 02:48:05,VALID,998.304,VALID,0,VALID,85.7798,VALID,0,VALID,26.0045,VALID,107,VALID,0.498828,
2009-11-26, 02:49:05,VALID,998.262,VALID,0,VALID,85.8256,VALID,0,VALID,25.9635,VALID,112,VALID,0.8875,
2009-11-26, 02:50:05,VALID,998.275,VALID,0,VALID,85.6272,VALID,0,VALID,25.944,VALID,111,VALID,0.470703,
2009-11-26, 02:51:05,VALID,998.265,VALID,0,VALID,85.5051,VALID,0,VALID,25.942,VALID,111,VALID,0.410156,
2009-11-26, 02:52:05,VALID,998.198,VALID,0,VALID,85.4441,VALID,0,VALID,25.983,VALID,111,VALID,0.454297,
2009-11-26, 02:53:05,VALID,998.227,VALID,0,VALID,85.1923,VALID,0,VALID,26.0045,VALID,111,VALID,0.325391,
2009-11-26, 02:54:05,VALID,998.201,VALID,0,VALID,85.1237,VALID,0,VALID,26.0241,VALID,111,VALID,0.382813,
2009-11-26, 02:55:05,VALID,998.186,VALID,0,VALID,85.5128,VALID,0,VALID,26.0221,VALID,111,VALID,0.258203,
2009-11-26, 02:56:05,VALID,998.187,VALID,0,VALID,85.4136,VALID,0,VALID,25.983,VALID,111,VALID,0.235156,
2009-11-26, 02:57:05,VALID,998.206,VALID,0,VALID,85.406,VALID,0,VALID,25.985,VALID,111,VALID,0.557031,
2009-11-26, 02:58:05,VALID,998.213,VALID,0,VALID,85.8943,VALID,0,VALID,25.983,VALID,94,VALID,0.796875,
2009-11-26, 02:59:05,VALID,998.181,VALID,0,VALID,85.6654,VALID,0,VALID,25.9635,VALID,47,VALID,0.772656,
2009-11-26, 03:00:05,VALID,998.19,VALID,0,VALID,85.5738,VALID,0,VALID,25.946,VALID,46,VALID,0.414453,
2009-11-26, 03:01:05,VALID,998.214,VALID,0,VALID,85.4975,VALID,0,VALID,25.9245,VALID,46,VALID,0.170312,
2009-11-26, 03:02:05,VALID,998.221,VALID,0,VALID,85.467,VALID,0,VALID,25.9245,VALID,46,VALID,0.430078,
2009-11-26, 03:03:05,VALID,998.224,VALID,0,VALID,85.0626,VALID,0,VALID,25.9245,VALID,78,VALID,0.508594,
2009-11-26, 03:04:05,VALID,998.224,VALID,0,VALID,84.6583,VALID,0,VALID,25.9635,VALID,127,VALID,0.873047,
2009-11-26, 03:05:05,VALID,998.229,VALID,0,VALID,84.3455,VALID,0,VALID,26.0026,VALID,269,VALID,0.389844,
2009-11-26, 03:06:05,VALID,998.199,VALID,0,VALID,84.2768,VALID,0,VALID,26.0221,VALID,269,VALID,0.416016,
2009-11-26, 03:07:05,VALID,998.258,VALID,0,VALID,84.0784,VALID,0,VALID,26.0631,VALID,269,VALID,0.0785156,
2009-11-26, 03:08:05,VALID,998.233,VALID,0,VALID,84.1318,VALID,0,VALID,26.0611,VALID,269,VALID,0,
2009-11-26, 03:09:05,VALID,998.237,VALID,0,VALID,84.2005,VALID,0,VALID,26.0611,VALID,269,VALID,0,
2009-11-26, 03:10:05,VALID,998.265,VALID,0,VALID,84.4828,VALID,0,VALID,26.0631,VALID,269,VALID,0.270312,
2009-11-26, 03:11:05,VALID,998.288,VALID,0,VALID,84.17,VALID,0,VALID,26.0436,VALID,299,VALID,0.303516,
2009-11-26, 03:12:05,VALID,998.308,VALID,0,VALID,84.7803,VALID,0,VALID,26.0416,VALID,299,VALID,0.310547,
2009-11-26, 03:13:05,VALID,998.328,VALID,0,VALID,84.8185,VALID,0,VALID,26.0631,VALID,298,VALID,0,
2009-11-26, 03:14:05,VALID,998.337,VALID,0,VALID,84.8261,VALID,0,VALID,26.0241,VALID,299,VALID,0,
2009-11-26, 03:15:05,VALID,998.31,VALID,0,VALID,85.0626,VALID,0,VALID,26.0241,VALID,322,VALID,0.250391,
2009-11-26, 03:16:05,VALID,998.331,VALID,0,VALID,85.1313,VALID,0,VALID,26.0045,VALID,352,VALID,0.710547,
2009-11-26, 03:17:05,VALID,998.358,VALID,0,VALID,85.4823,VALID,0,VALID,25.9635,VALID,342,VALID,0.615234,
2009-11-26, 03:18:05,VALID,998.34,VALID,0,VALID,83.7351,VALID,0,VALID,25.9655,VALID,94,VALID,0.533594,
2009-11-26, 03:19:05,VALID,998.381,VALID,0,VALID,84.3836,VALID,0,VALID,25.983,VALID,97,VALID,0.278125,
2009-11-26, 03:20:05,VALID,998.4,VALID,0,VALID,84.1089,VALID,0,VALID,26.0241,VALID,357,VALID,0.446094,
2009-11-26, 03:21:05,VALID,998.439,VALID,0,VALID,84.086,VALID,0,VALID,26.0221,VALID,312,VALID,0.363281,
2009-11-26, 03:22:05,VALID,998.475,VALID,0,VALID,83.5062,VALID,0,VALID,26.0611,VALID,263,VALID,0.577734,
2009-11-26, 03:23:05,VALID,998.464,VALID,0,VALID,83.5977,VALID,0,VALID,26.0807,VALID,252,VALID,0.3125,
2009-11-26, 03:24:05,VALID,998.496,VALID,0,VALID,84.1166,VALID,0,VALID,26.1197,INVALID,360,VALID,0,
2009-11-26, 03:25:05,VALID,998.518,VALID,0,VALID,83.8114,VALID,0,VALID,26.1002,VALID,252,VALID,0,
2009-11-26, 03:26:05,VALID,998.506,VALID,0,VALID,83.8266,VALID,0,VALID,26.1022,VALID,252,VALID,0,
2009-11-26, 03:27:05,VALID,998.552,VALID,0,VALID,83.6588,VALID,0,VALID,26.0807,INVALID,360,VALID,0,
2009-11-26, 03:28:05,VALID,998.558,VALID,0,VALID,83.5138,VALID,0,VALID,26.0611,VALID,252,VALID,0.0640625,
2009-11-26, 03:29:05,VALID,998.593,VALID,0,VALID,83.4299,VALID,0,VALID,26.0807,VALID,252,VALID,0,
2009-11-26, 03:30:05,VALID,998.605,VALID,0,VALID,83.5977,VALID,0,VALID,26.1002,VALID,300,VALID,0.195703,
2009-11-26, 03:31:05,VALID,998.628,VALID,0,VALID,83.5596,VALID,0,VALID,26.0807,VALID,302,VALID,0.437109,
2009-11-26, 03:32:05,VALID,998.643,VALID,0,VALID,83.7122,VALID,0,VALID,26.1002,VALID,333,VALID,0.626953,
2009-11-26, 03:33:05,VALID,998.655,VALID,0,VALID,84.1395,VALID,0,VALID,26.1002,VALID,46,VALID,0.837109,
2009-11-26, 03:34:05,VALID,998.7,VALID,0,VALID,84.498,VALID,0,VALID,26.0807,VALID,1,VALID,0.548828,
2009-11-26, 03:35:05,VALID,998.713,VALID,0,VALID,84.1013,VALID,0,VALID,26.0631,VALID,357,VALID,0.744922,
2009-11-26, 03:36:05,VALID,998.721,VALID,0,VALID,84.1318,VALID,0,VALID,26.0631,VALID,358,VALID,0.753125,
2009-11-26, 03:37:05,VALID,998.73,VALID,0,VALID,84.4217,VALID,0,VALID,26.0416,VALID,32,VALID,0.947656,
2009-11-26, 03:38:05,VALID,998.748,VALID,0,VALID,83.5672,VALID,0,VALID,26.0436,VALID,20,VALID,0.969531,
2009-11-26, 03:39:05,VALID,998.745,VALID,0,VALID,82.6135,VALID,0,VALID,26.0631,VALID,28,VALID,1.5082,
2009-11-26, 03:40:05,VALID,998.734,VALID,0,VALID,83.3383,VALID,0,VALID,26.1002,VALID,12,VALID,0.682031,
2009-11-26, 03:41:05,VALID,998.786,VALID,0,VALID,82.1939,VALID,0,VALID,26.1002,VALID,337,VALID,0.773047,
2009-11-26, 03:42:05,VALID,998.805,VALID,0,VALID,82.5525,VALID,0,VALID,26.1412,VALID,338,VALID,0.247266,
2009-11-26, 03:43:05,VALID,998.805,VALID,0,VALID,82.3389,VALID,0,VALID,26.1607,VALID,348,VALID,0.7625,
2009-11-26, 03:44:05,VALID,998.767,VALID,0,VALID,82.522,VALID,0,VALID,26.1588,VALID,15,VALID,0.891797,
2009-11-26, 03:45:05,VALID,998.793,VALID,0,VALID,82.026,VALID,0,VALID,26.1392,VALID,8,VALID,1.65977,